SKW4927 KOKC-KLAX

Flight info

Callsign SKW4927
Flight time 2h 35m
Altitude 28000
Route OLGUY3 YOUSE PNH ABQ DRK HIPPI GABBL HLYWD1
Aircraft E75L/M-SDE3GILORVW/S

Departure

Time 2026-05-04 12:45
Airport OKC Will Rogers World Airport (KOKC)

Arrival

Time 2026-05-04 15:20
Airport Los Angeles International Airport (KLAX)
Time Latitude Longitude Altitude Speed Heading
2026-05-04 12:31 35.39479 -97.59889 1295 ft 0 kts 30°
2026-05-04 12:36 35.39477 -97.59891 1295 ft 2 kts 30°
2026-05-04 12:36 35.39455 -97.59906 1295 ft 4 kts 30°
2026-05-04 12:37 35.39436 -97.59920 1294 ft 4 kts 19°
2026-05-04 12:37 35.39418 -97.59917 1294 ft 4 kts 291°
2026-05-04 12:37 35.39417 -97.59888 1294 ft 2 kts 270°
2026-05-04 12:37 35.39417 -97.59887 1294 ft 3 kts 270°
2026-05-04 12:39 35.39417 -97.59892 1294 ft 2 kts 270°
2026-05-04 12:39 35.39417 -97.59918 1294 ft 4 kts 270°
2026-05-04 12:40 35.39421 -97.59963 1294 ft 6 kts 288°
2026-05-04 12:40 35.39447 -97.60009 1293 ft 4 kts 300°
2026-05-04 12:40 35.39446 -97.60019 1293 ft 3 kts 243°
2026-05-04 12:40 35.39422 -97.60071 1291 ft 10 kts 269°
2026-05-04 12:41 35.39476 -97.60161 1288 ft 17 kts 317°
2026-05-04 12:41 35.39580 -97.60280 1288 ft 23 kts 316°
2026-05-04 12:41 35.39719 -97.60398 1286 ft 25 kts 353°
2026-05-04 12:41 35.39899 -97.60401 1287 ft 26 kts 360°
2026-05-04 12:42 35.40081 -97.60401 1291 ft 25 kts 359°
2026-05-04 12:42 35.40256 -97.60398 1294 ft 25 kts 358°
2026-05-04 12:42 35.40428 -97.60399 1295 ft 25 kts 359°
2026-05-04 12:42 35.40562 -97.60422 1295 ft 15 kts 316°
2026-05-04 12:43 35.40581 -97.60538 1296 ft 9 kts 270°
2026-05-04 12:43 35.40575 -97.60570 1295 ft 2 kts 211°
2026-05-04 12:43 35.40562 -97.60573 1295 ft 1 kts 182°
2026-05-04 12:43 35.40540 -97.60573 1295 ft 0 kts 180°
2026-05-04 12:44 35.40505 -97.60574 1295 ft 25 kts 181°
2026-05-04 12:44 35.40074 -97.60574 1291 ft 100 kts 180°
2026-05-04 12:44 35.39139 -97.60576 1320 ft 164 kts 182°
2026-05-04 12:45 35.37886 -97.60562 1936 ft 190 kts 177°
2026-05-04 12:45 35.36536 -97.60184 2852 ft 199 kts 178°
2026-05-04 12:45 35.35185 -97.60647 3369 ft 218 kts 219°
2026-05-04 12:45 35.34401 -97.62198 4392 ft 214 kts 258°
2026-05-04 12:46 35.34544 -97.64009 5133 ft 230 kts 291°
2026-05-04 12:46 35.35281 -97.65790 5890 ft 238 kts 291°
2026-05-04 12:46 35.35848 -97.67744 6503 ft 250 kts 283°
2026-05-04 12:46 35.36230 -97.69875 7191 ft 260 kts 278°
2026-05-04 12:47 35.36487 -97.72089 8014 ft 265 kts 276°
2026-05-04 12:47 35.36673 -97.74365 8752 ft 270 kts 274°
2026-05-04 12:47 35.36826 -97.76679 9468 ft 275 kts 274°
2026-05-04 12:47 35.36966 -97.79036 10114 ft 281 kts 274°
2026-05-04 12:48 35.37085 -97.81501 10414 ft 299 kts 272°
2026-05-04 12:48 35.37102 -97.84123 10663 ft 316 kts 270°
2026-05-04 12:48 35.37098 -97.86881 10944 ft 331 kts 270°
2026-05-04 12:48 35.37090 -97.89759 11256 ft 343 kts 270°
2026-05-04 12:49 35.37081 -97.92699 11810 ft 347 kts 270°
2026-05-04 12:49 35.37070 -97.95683 12386 ft 351 kts 270°
2026-05-04 12:49 35.37057 -97.98687 12992 ft 354 kts 271°
2026-05-04 12:49 35.37043 -98.01713 13584 ft 357 kts 270°
2026-05-04 12:50 35.37028 -98.04770 14178 ft 361 kts 270°
2026-05-04 12:50 35.37011 -98.07852 14786 ft 363 kts 271°
2026-05-04 12:50 35.36945 -98.10961 15348 ft 367 kts 271°
2026-05-04 12:50 35.36989 -98.14059 16260 ft 357 kts 272°
2026-05-04 12:51 35.37035 -98.17049 17364 ft 344 kts 273°
2026-05-04 12:51 35.37093 -98.19972 18098 ft 344 kts 274°
2026-05-04 12:51 35.37154 -98.22910 18717 ft 347 kts 273°
2026-05-04 12:51 35.37212 -98.25881 19378 ft 349 kts 273°
2026-05-04 12:52 35.37270 -98.28877 20049 ft 352 kts 273°
2026-05-04 12:52 35.37326 -98.31845 20667 ft 355 kts 274°
2026-05-04 12:52 35.37383 -98.34918 21279 ft 357 kts 274°
2026-05-04 12:52 35.37443 -98.37970 21849 ft 359 kts 274°
2026-05-04 12:53 35.37495 -98.41046 22397 ft 362 kts 273°
2026-05-04 12:53 35.37546 -98.44097 22921 ft 364 kts 273°
2026-05-04 12:53 35.37596 -98.47212 23451 ft 367 kts 274°
2026-05-04 12:53 35.37648 -98.50351 23970 ft 369 kts 274°
2026-05-04 12:54 35.37697 -98.53500 24483 ft 371 kts 274°
2026-05-04 12:54 35.37747 -98.56673 24986 ft 374 kts 274°
2026-05-04 12:54 35.37796 -98.59866 25513 ft 376 kts 274°
2026-05-04 12:54 35.37846 -98.63084 26021 ft 379 kts 274°
2026-05-04 12:55 35.37893 -98.66321 26509 ft 381 kts 274°
2026-05-04 12:55 35.37941 -98.69573 26977 ft 383 kts 274°
2026-05-04 12:55 35.37987 -98.72844 27410 ft 385 kts 274°
2026-05-04 12:55 35.38034 -98.76137 27824 ft 387 kts 274°
2026-05-04 12:56 35.38080 -98.79440 28222 ft 389 kts 274°
2026-05-04 12:56 35.38124 -98.82758 28606 ft 390 kts 274°
2026-05-04 12:56 35.38171 -98.86123 28654 ft 401 kts 274°
2026-05-04 12:57 35.38258 -98.93104 28839 ft 417 kts 274°
2026-05-04 12:57 35.38302 -98.96689 28977 ft 424 kts 274°
2026-05-04 12:57 35.38347 -99.00327 29085 ft 430 kts 274°
2026-05-04 12:58 35.38434 -99.07782 29169 ft 445 kts 273°
2026-05-04 12:58 35.38383 -99.15453 29152 ft 451 kts 270°
2026-05-04 12:59 35.38248 -99.23116 29160 ft 450 kts 270°
2026-05-04 12:59 35.37890 -99.30783 29151 ft 451 kts 269°
2026-05-04 13:00 35.37569 -99.37150 29158 ft 451 kts 269°
2026-05-04 13:00 35.37175 -99.44819 29153 ft 451 kts 269°
2026-05-04 13:01 35.36777 -99.52487 29157 ft 451 kts 269°
2026-05-04 13:01 35.36311 -99.61396 29157 ft 451 kts 269°
2026-05-04 13:02 35.35970 -99.67821 29156 ft 451 kts 269°
2026-05-04 13:02 35.35559 -99.75484 29141 ft 451 kts 269°
2026-05-04 13:03 35.35142 -99.83161 29160 ft 451 kts 269°
2026-05-04 13:03 35.34722 -99.90831 29164 ft 451 kts 269°
2026-05-04 13:04 35.34297 -99.98497 29163 ft 451 kts 269°
2026-05-04 13:04 35.33866 -100.06152 29167 ft 450 kts 269°
2026-05-04 13:05 35.33433 -100.13796 29162 ft 449 kts 269°
2026-05-04 13:05 35.32998 -100.21387 29166 ft 449 kts 269°
2026-05-04 13:06 35.32553 -100.29017 29173 ft 449 kts 269°
2026-05-04 13:06 35.32106 -100.36651 29173 ft 449 kts 269°
2026-05-04 13:07 35.31655 -100.44275 29175 ft 449 kts 269°
2026-05-04 13:07 35.31197 -100.51906 29174 ft 449 kts 269°
2026-05-04 13:08 35.30734 -100.59528 29189 ft 448 kts 269°
2026-05-04 13:08 35.30270 -100.67126 29178 ft 448 kts 269°
2026-05-04 13:09 35.29800 -100.74713 29188 ft 448 kts 269°
2026-05-04 13:09 35.29326 -100.82317 29177 ft 447 kts 269°
2026-05-04 13:10 35.28847 -100.89904 29190 ft 447 kts 268°
2026-05-04 13:10 35.28367 -100.97434 29178 ft 446 kts 268°
2026-05-04 13:11 35.27879 -101.05008 29185 ft 446 kts 268°
2026-05-04 13:11 35.27388 -101.12571 29196 ft 446 kts 268°
2026-05-04 13:12 35.26891 -101.20139 29190 ft 446 kts 268°
2026-05-04 13:12 35.26392 -101.27674 29197 ft 445 kts 268°
2026-05-04 13:13 35.25886 -101.35227 29193 ft 445 kts 268°
2026-05-04 13:13 35.25378 -101.42761 29210 ft 445 kts 268°
2026-05-04 13:14 35.24863 -101.50306 29195 ft 444 kts 268°
2026-05-04 13:14 35.24346 -101.57834 29218 ft 444 kts 268°
2026-05-04 13:15 35.23822 -101.65368 29205 ft 444 kts 268°
2026-05-04 13:15 35.23470 -101.72899 29217 ft 443 kts 271°
2026-05-04 13:16 35.23326 -101.80399 29206 ft 442 kts 271°
2026-05-04 13:16 35.23198 -101.87917 29211 ft 442 kts 271°
2026-05-04 13:17 35.23073 -101.94942 29216 ft 442 kts 271°
2026-05-04 13:17 35.22932 -102.02467 29194 ft 442 kts 271°
2026-05-04 13:18 35.22787 -102.09947 29208 ft 440 kts 271°
2026-05-04 13:18 35.22640 -102.17443 29201 ft 440 kts 271°
2026-05-04 13:19 35.22486 -102.24934 29203 ft 440 kts 271°
2026-05-04 13:19 35.22328 -102.32416 29202 ft 440 kts 271°
2026-05-04 13:20 35.22166 -102.39894 29203 ft 440 kts 271°
2026-05-04 13:20 35.21998 -102.47374 29203 ft 440 kts 271°
2026-05-04 13:21 35.21825 -102.54848 29203 ft 440 kts 270°
2026-05-04 13:21 35.21650 -102.62325 29185 ft 440 kts 270°
2026-05-04 13:22 35.21470 -102.69767 29198 ft 439 kts 270°
2026-05-04 13:22 35.21283 -102.77242 29186 ft 440 kts 270°
2026-05-04 13:23 35.21095 -102.84720 29171 ft 440 kts 270°
2026-05-04 13:23 35.20899 -102.92195 29175 ft 438 kts 270°
2026-05-04 13:24 35.20701 -102.99643 29187 ft 438 kts 270°
2026-05-04 13:24 35.20497 -103.07098 29180 ft 438 kts 270°
2026-05-04 13:25 35.20184 -103.18268 29197 ft 438 kts 270°
2026-05-04 13:25 35.19969 -103.25710 29189 ft 438 kts 270°
2026-05-04 13:26 35.19751 -103.33151 29198 ft 438 kts 269°
2026-05-04 13:26 35.19528 -103.40587 29180 ft 437 kts 269°
2026-05-04 13:27 35.19300 -103.48021 29183 ft 438 kts 269°
2026-05-04 13:27 35.19068 -103.55458 29185 ft 437 kts 269°
2026-05-04 13:28 35.18830 -103.62889 29182 ft 437 kts 269°
2026-05-04 13:28 35.18588 -103.70335 29186 ft 437 kts 269°
2026-05-04 13:29 35.18343 -103.77754 29185 ft 437 kts 269°
2026-05-04 13:29 35.18093 -103.85185 29186 ft 437 kts 269°
2026-05-04 13:30 35.17838 -103.92607 29197 ft 437 kts 269°
2026-05-04 13:30 35.17578 -104.00025 29187 ft 437 kts 269°
2026-05-04 13:31 35.17315 -104.07445 29203 ft 437 kts 268°
2026-05-04 13:31 35.17046 -104.14851 29204 ft 436 kts 269°
2026-05-04 13:32 35.16776 -104.22260 29212 ft 436 kts 268°
2026-05-04 13:32 35.16499 -104.29626 29227 ft 436 kts 268°
2026-05-04 13:33 35.16219 -104.37021 29219 ft 436 kts 268°
2026-05-04 13:33 35.15933 -104.44420 29233 ft 435 kts 268°
2026-05-04 13:34 35.15643 -104.51805 29233 ft 435 kts 268°
2026-05-04 13:34 35.15347 -104.59250 29240 ft 436 kts 268°
2026-05-04 13:35 35.14899 -104.70283 29249 ft 435 kts 268°
2026-05-04 13:36 35.14594 -104.77670 29255 ft 435 kts 268°
2026-05-04 13:36 35.14284 -104.85055 29255 ft 435 kts 268°
2026-05-04 13:37 35.13969 -104.92454 29262 ft 435 kts 268°
2026-05-04 13:37 35.13650 -104.99831 29270 ft 435 kts 268°
2026-05-04 13:38 35.13326 -105.07224 29265 ft 435 kts 268°
2026-05-04 13:38 35.12999 -105.14607 29280 ft 435 kts 268°
2026-05-04 13:39 35.12667 -105.21984 29282 ft 435 kts 268°
2026-05-04 13:39 35.12331 -105.29329 29284 ft 435 kts 268°
2026-05-04 13:40 35.11991 -105.36707 29288 ft 435 kts 268°
2026-05-04 13:40 35.11646 -105.44090 29297 ft 435 kts 268°
2026-05-04 13:41 35.11295 -105.51464 29295 ft 435 kts 267°
2026-05-04 13:41 35.10998 -105.57645 29299 ft 435 kts 267°
2026-05-04 13:42 35.10462 -105.68667 29305 ft 435 kts 267°
2026-05-04 13:42 35.10096 -105.76059 29302 ft 436 kts 267°
2026-05-04 13:43 35.09726 -105.83451 29301 ft 436 kts 267°
2026-05-04 13:43 35.09351 -105.90849 29288 ft 436 kts 267°
2026-05-04 13:44 35.08971 -105.98244 29295 ft 436 kts 267°
2026-05-04 13:44 35.08589 -106.05624 29293 ft 435 kts 267°
2026-05-04 13:45 35.08201 -106.12997 29277 ft 435 kts 267°
2026-05-04 13:45 35.07811 -106.20328 29289 ft 435 kts 266°
2026-05-04 13:46 35.07415 -106.27704 29278 ft 435 kts 266°
2026-05-04 13:46 35.07013 -106.35087 29291 ft 435 kts 266°
2026-05-04 13:47 35.06608 -106.42456 29275 ft 435 kts 266°
2026-05-04 13:47 35.06198 -106.49825 29279 ft 434 kts 266°
2026-05-04 13:48 35.05785 -106.57183 29273 ft 435 kts 266°
2026-05-04 13:48 35.05367 -106.64538 29282 ft 434 kts 266°
2026-05-04 13:49 35.04944 -106.71899 29270 ft 434 kts 266°
2026-05-04 13:49 35.04487 -106.79255 29285 ft 434 kts 266°
2026-05-04 13:50 35.04191 -106.86614 29282 ft 434 kts 268°
2026-05-04 13:50 35.03916 -106.93976 29286 ft 433 kts 268°
2026-05-04 13:51 35.03637 -107.01326 29286 ft 433 kts 267°
2026-05-04 13:51 35.03352 -107.08672 29281 ft 434 kts 267°
2026-05-04 13:52 35.02917 -107.19702 29284 ft 433 kts 267°
2026-05-04 13:53 35.02621 -107.27041 29291 ft 434 kts 267°
2026-05-04 13:53 35.02322 -107.34358 29278 ft 433 kts 267°
2026-05-04 13:54 35.01862 -107.45376 29265 ft 433 kts 267°
2026-05-04 13:55 35.01395 -107.56380 29274 ft 433 kts 267°
2026-05-04 13:55 35.00917 -107.67381 29262 ft 433 kts 267°
2026-05-04 13:56 35.00593 -107.74708 29268 ft 433 kts 267°
2026-05-04 13:57 35.00099 -107.85710 29262 ft 433 kts 267°
2026-05-04 13:58 34.99425 -108.00378 29253 ft 433 kts 267°
2026-05-04 13:58 34.98907 -108.11349 29264 ft 431 kts 266°
2026-05-04 13:59 34.98558 -108.18651 29253 ft 431 kts 266°
2026-05-04 13:59 34.98203 -108.25963 29648 ft 431 kts 266°
2026-05-04 14:00 34.98026 -108.29608 30035 ft 429 kts 266°
2026-05-04 14:00 34.97668 -108.36848 30231 ft 425 kts 266°
2026-05-04 14:00 34.97492 -108.40390 30249 ft 424 kts 266°
2026-05-04 14:01 34.97129 -108.47612 30260 ft 424 kts 266°
2026-05-04 14:02 34.96580 -108.58361 30244 ft 423 kts 266°
2026-05-04 14:02 34.96213 -108.65479 30253 ft 423 kts 266°
2026-05-04 14:03 34.95838 -108.72637 30253 ft 423 kts 266°
2026-05-04 14:03 34.95461 -108.79786 30243 ft 422 kts 266°
2026-05-04 14:04 34.94885 -108.90510 30252 ft 422 kts 266°
2026-05-04 14:04 34.94497 -108.97652 30244 ft 421 kts 266°
2026-05-04 14:05 34.93906 -109.08351 30231 ft 422 kts 265°
2026-05-04 14:06 34.93507 -109.15488 30229 ft 421 kts 265°
2026-05-04 14:06 34.93106 -109.22610 30230 ft 422 kts 265°
2026-05-04 14:07 34.92700 -109.29740 30216 ft 421 kts 265°
2026-05-04 14:07 34.92291 -109.36851 30227 ft 421 kts 265°
2026-05-04 14:08 34.91878 -109.43963 30215 ft 420 kts 265°
2026-05-04 14:08 34.91459 -109.51067 30223 ft 420 kts 265°
2026-05-04 14:09 34.90825 -109.61710 30208 ft 419 kts 265°
2026-05-04 14:10 34.90183 -109.72339 30206 ft 419 kts 265°
2026-05-04 14:10 34.89751 -109.79418 30208 ft 419 kts 265°
2026-05-04 14:11 34.89312 -109.86500 30196 ft 419 kts 265°
2026-05-04 14:11 34.88650 -109.97120 30195 ft 419 kts 265°
2026-05-04 14:12 34.88206 -110.04174 30191 ft 416 kts 265°
2026-05-04 14:13 34.87530 -110.14713 30192 ft 416 kts 264°
2026-05-04 14:13 34.87081 -110.21696 30193 ft 416 kts 265°
2026-05-04 14:14 34.86621 -110.28723 30185 ft 417 kts 264°
2026-05-04 14:14 34.85926 -110.39266 30189 ft 416 kts 264°
2026-05-04 14:15 34.84984 -110.53318 30185 ft 416 kts 264°
2026-05-04 14:16 34.84269 -110.63857 30184 ft 416 kts 264°
2026-05-04 14:17 34.83544 -110.74393 30181 ft 416 kts 264°
2026-05-04 14:18 34.82809 -110.84927 30181 ft 417 kts 264°
2026-05-04 14:19 34.81817 -110.98934 30185 ft 415 kts 264°
2026-05-04 14:19 34.81314 -111.05933 30195 ft 415 kts 264°
2026-05-04 14:20 34.80809 -111.12950 30190 ft 415 kts 264°
2026-05-04 14:20 34.80303 -111.19912 30207 ft 415 kts 264°
2026-05-04 14:21 34.79533 -111.30391 30205 ft 414 kts 264°
2026-05-04 14:21 34.79013 -111.37373 30211 ft 414 kts 264°
2026-05-04 14:22 34.78580 -111.43179 30218 ft 413 kts 264°
2026-05-04 14:22 34.78054 -111.50139 30211 ft 413 kts 264°
2026-05-04 14:23 34.77262 -111.60587 30209 ft 414 kts 264°
2026-05-04 14:24 34.76725 -111.67541 30210 ft 413 kts 264°
2026-05-04 14:24 34.76189 -111.74498 30195 ft 413 kts 263°
2026-05-04 14:25 34.75648 -111.81406 30194 ft 413 kts 263°
2026-05-04 14:25 34.74832 -111.91818 30175 ft 412 kts 263°
2026-05-04 14:26 34.74282 -111.98754 30176 ft 412 kts 263°
2026-05-04 14:26 34.73727 -112.05687 30153 ft 411 kts 263°
2026-05-04 14:27 34.73170 -112.12611 30133 ft 411 kts 263°
2026-05-04 14:27 34.72607 -112.19522 30147 ft 411 kts 263°
2026-05-04 14:28 34.72045 -112.26438 30134 ft 411 kts 263°
2026-05-04 14:28 34.71478 -112.33350 30141 ft 411 kts 263°
2026-05-04 14:29 34.70339 -112.47179 30135 ft 411 kts 261°
2026-05-04 14:30 34.69558 -112.54063 30137 ft 411 kts 261°
2026-05-04 14:31 34.68354 -112.64343 30139 ft 412 kts 261°
2026-05-04 14:32 34.66725 -112.78121 30144 ft 412 kts 261°
2026-05-04 14:32 34.65904 -112.85017 30133 ft 412 kts 261°
2026-05-04 14:33 34.65082 -112.91902 30129 ft 412 kts 261°
2026-05-04 14:33 34.64255 -112.98788 30104 ft 411 kts 261°
2026-05-04 14:34 34.63426 -113.05652 30078 ft 412 kts 261°
2026-05-04 14:34 34.62591 -113.12534 30074 ft 412 kts 261°
2026-05-04 14:35 34.61752 -113.19416 30062 ft 413 kts 260°
2026-05-04 14:35 34.60906 -113.26319 30052 ft 413 kts 261°
2026-05-04 14:36 34.60065 -113.33152 30053 ft 412 kts 260°
2026-05-04 14:36 34.59216 -113.40030 30043 ft 412 kts 260°
2026-05-04 14:37 34.58362 -113.46910 30009 ft 411 kts 260°
2026-05-04 14:37 34.57506 -113.53777 30030 ft 411 kts 260°
2026-05-04 14:38 34.56617 -113.60631 30018 ft 411 kts 259°
2026-05-04 14:38 34.55831 -113.67518 30018 ft 411 kts 261°
2026-05-04 14:39 34.55074 -113.74392 30016 ft 411 kts 261°
2026-05-04 14:39 34.54311 -113.81216 30028 ft 410 kts 261°
2026-05-04 14:40 34.53169 -113.91499 30004 ft 410 kts 261°
2026-05-04 14:40 34.52394 -113.98354 29995 ft 411 kts 261°
2026-05-04 14:41 34.51565 -114.05211 29955 ft 410 kts 258°
2026-05-04 14:42 34.48830 -114.18615 29929 ft 409 kts 255°
2026-05-04 14:42 34.47411 -114.25294 29941 ft 409 kts 255°
2026-05-04 14:43 34.46001 -114.31934 29925 ft 410 kts 255°
2026-05-04 14:43 34.44569 -114.38652 29924 ft 409 kts 255°
2026-05-04 14:44 34.43151 -114.45281 29925 ft 409 kts 255°
2026-05-04 14:44 34.41721 -114.51954 29921 ft 409 kts 255°
2026-05-04 14:45 34.40286 -114.58630 29911 ft 409 kts 255°
2026-05-04 14:45 34.38846 -114.65299 29904 ft 410 kts 255°
2026-05-04 14:46 34.37400 -114.71996 29907 ft 411 kts 255°
2026-05-04 14:46 34.35949 -114.78689 29903 ft 411 kts 254°
2026-05-04 14:47 34.34495 -114.85373 29910 ft 410 kts 254°
2026-05-04 14:47 34.33043 -114.92029 29909 ft 409 kts 254°
2026-05-04 14:48 34.31586 -114.98682 29906 ft 409 kts 254°
2026-05-04 14:48 34.30125 -115.05340 29892 ft 410 kts 254°
2026-05-04 14:49 34.28659 -115.11998 29900 ft 409 kts 254°
2026-05-04 14:49 34.27171 -115.18625 29900 ft 408 kts 253°
2026-05-04 14:50 34.25752 -115.25277 29890 ft 408 kts 254°
2026-05-04 14:50 34.24338 -115.31918 29906 ft 408 kts 254°
2026-05-04 14:51 34.22925 -115.38549 29879 ft 406 kts 254°
2026-05-04 14:51 34.21508 -115.45162 29884 ft 407 kts 254°
2026-05-04 14:52 34.20088 -115.51772 29892 ft 406 kts 254°
2026-05-04 14:52 34.18677 -115.58328 29890 ft 406 kts 254°
2026-05-04 14:53 34.17258 -115.64921 29886 ft 404 kts 255°
2026-05-04 14:53 34.16161 -115.71606 29889 ft 407 kts 260°
2026-05-04 14:54 34.15474 -115.78392 29873 ft 407 kts 261°
2026-05-04 14:54 34.14818 -115.85176 29882 ft 406 kts 261°
2026-05-04 14:55 34.14163 -115.91946 29875 ft 406 kts 261°
2026-05-04 14:55 34.13500 -115.98719 29882 ft 406 kts 261°
2026-05-04 14:56 34.12841 -116.05485 29877 ft 406 kts 261°
2026-05-04 14:56 34.12175 -116.12245 29874 ft 405 kts 261°
2026-05-04 14:57 34.11507 -116.19003 29870 ft 405 kts 261°
2026-05-04 14:57 34.10849 -116.25724 29877 ft 406 kts 261°
2026-05-04 14:58 34.10147 -116.32491 29885 ft 406 kts 261°
2026-05-04 14:58 34.09548 -116.38141 29899 ft 406 kts 260°
2026-05-04 14:59 34.08704 -116.45982 29899 ft 405 kts 260°
2026-05-04 15:00 34.07579 -116.56114 29911 ft 406 kts 259°
2026-05-04 15:00 34.06941 -116.62871 29925 ft 405 kts 261°
2026-05-04 15:01 34.06320 -116.69604 29308 ft 396 kts 260°
2026-05-04 15:01 34.06017 -116.72849 28780 ft 383 kts 260°
2026-05-04 15:01 34.05728 -116.75987 28290 ft 371 kts 260°
2026-05-04 15:01 34.05443 -116.79038 27809 ft 360 kts 260°
2026-05-04 15:02 34.05162 -116.81997 27335 ft 350 kts 259°
2026-05-04 15:02 34.04902 -116.84937 26895 ft 357 kts 261°
2026-05-04 15:02 34.04623 -116.87897 26420 ft 363 kts 258°
2026-05-04 15:02 34.04247 -116.90917 25968 ft 362 kts 258°
2026-05-04 15:03 34.03861 -116.93924 25518 ft 362 kts 257°
2026-05-04 15:03 34.03472 -116.96917 25055 ft 360 kts 257°
2026-05-04 15:03 34.03056 -116.99890 24599 ft 360 kts 257°
2026-05-04 15:03 34.02693 -117.02882 24132 ft 360 kts 258°
2026-05-04 15:04 34.02338 -117.05871 23661 ft 360 kts 258°
2026-05-04 15:04 34.01985 -117.08858 23187 ft 358 kts 258°
2026-05-04 15:04 34.01752 -117.10820 22871 ft 357 kts 257°
2026-05-04 15:04 34.01403 -117.13761 22405 ft 353 kts 257°
2026-05-04 15:05 34.01055 -117.16688 21943 ft 353 kts 257°
2026-05-04 15:05 34.00707 -117.19608 21467 ft 352 kts 257°
2026-05-04 15:05 34.00361 -117.22518 21006 ft 349 kts 257°
2026-05-04 15:05 34.00017 -117.25403 20561 ft 347 kts 257°
2026-05-04 15:06 33.99680 -117.28274 20127 ft 344 kts 258°
2026-05-04 15:06 33.99345 -117.31120 19559 ft 343 kts 257°
2026-05-04 15:06 33.98753 -117.33858 18955 ft 335 kts 243°
2026-05-04 15:07 33.97803 -117.39337 17745 ft 340 kts 264°
2026-05-04 15:07 33.97785 -117.42184 17134 ft 340 kts 265°
2026-05-04 15:07 33.97632 -117.45006 16537 ft 337 kts 258°
2026-05-04 15:07 33.97532 -117.47839 15914 ft 344 kts 272°
2026-05-04 15:08 33.98333 -117.50595 15283 ft 357 kts 294°
2026-05-04 15:08 33.99548 -117.53200 14615 ft 354 kts 289°
2026-05-04 15:08 34.00330 -117.55983 13960 ft 348 kts 278°
2026-05-04 15:08 34.00752 -117.58830 13313 ft 344 kts 271°
2026-05-04 15:09 34.00952 -117.61693 12663 ft 342 kts 268°
2026-05-04 15:09 34.00983 -117.64556 12022 ft 338 kts 261°
2026-05-04 15:09 34.00764 -117.67378 11385 ft 337 kts 259°
2026-05-04 15:10 34.00291 -117.72936 10105 ft 318 kts 259°
2026-05-04 15:10 33.99988 -117.75489 9497 ft 303 kts 261°
2026-05-04 15:10 33.99463 -117.80549 8349 ft 305 kts 264°
2026-05-04 15:11 33.99245 -117.83096 7776 ft 306 kts 262°
2026-05-04 15:11 33.99024 -117.85629 7348 ft 301 kts 265°
2026-05-04 15:11 33.98864 -117.88120 6953 ft 296 kts 265°
2026-05-04 15:11 33.98685 -117.90589 6489 ft 293 kts 262°
2026-05-04 15:12 33.98043 -117.92876 5966 ft 287 kts 241°
2026-05-04 15:12 33.97152 -117.95166 4761 ft 308 kts 250°
2026-05-04 15:12 33.96783 -117.97519 5350 ft 264 kts 269°
2026-05-04 15:12 33.96899 -117.99763 5563 ft 279 kts 275°
2026-05-04 15:13 33.97065 -118.02080 5311 ft 276 kts 274°
2026-05-04 15:13 33.97090 -118.04262 5468 ft 243 kts 263°
2026-05-04 15:13 33.96661 -118.06170 4791 ft 238 kts 241°
2026-05-04 15:13 33.96242 -118.07959 4209 ft 222 kts 281°
2026-05-04 15:14 33.96792 -118.09545 4041 ft 199 kts 294°
2026-05-04 15:14 33.97085 -118.11050 3951 ft 182 kts 261°
2026-05-04 15:14 33.96564 -118.12418 3757 ft 175 kts 243°
2026-05-04 15:14 33.96309 -118.13804 3615 ft 171 kts 261°
2026-05-04 15:15 33.96158 -118.15206 3544 ft 168 kts 261°
2026-05-04 15:15 33.96005 -118.16622 3341 ft 169 kts 261°
2026-05-04 15:15 33.95827 -118.18021 3213 ft 170 kts 260°
2026-05-04 15:16 33.95424 -118.20707 3018 ft 148 kts 259°
2026-05-04 15:16 33.95379 -118.21858 2886 ft 134 kts 273°
2026-05-04 15:16 33.95155 -118.24181 2555 ft 142 kts 262°
2026-05-04 15:17 33.95093 -118.25350 2305 ft 139 kts 268°
2026-05-04 15:17 33.94850 -118.27608 1898 ft 136 kts 258°
2026-05-04 15:17 33.94767 -118.28743 1754 ft 135 kts 263°
2026-05-04 15:18 33.94610 -118.29870 1607 ft 137 kts 261°
2026-05-04 15:18 33.94476 -118.30997 1385 ft 135 kts 261°
2026-05-04 15:18 33.94353 -118.32133 1114 ft 137 kts 262°
2026-05-04 15:19 33.94132 -118.34370 719 ft 134 kts 262°
2026-05-04 15:19 33.94023 -118.35469 563 ft 131 kts 263°
2026-05-04 15:19 33.93798 -118.37662 242 ft 135 kts 263°
2026-05-04 15:20 33.93683 -118.38782 102 ft 134 kts 263°
2026-05-04 15:20 33.93584 -118.39777 92 ft 97 kts 264°
2026-05-04 15:20 33.93595 -118.40264 92 ft 38 kts 291°
2026-05-04 15:20 33.93617 -118.40541 92 ft 32 kts 261°
2026-05-04 15:21 33.93596 -118.40785 91 ft 25 kts 276°
2026-05-04 15:21 33.93668 -118.40895 94 ft 18 kts 347°
2026-05-04 15:21 33.93801 -118.40768 94 ft 16 kts 81°
2026-05-04 15:22 33.93815 -118.40628 92 ft 18 kts 84°
2026-05-04 15:22 33.93826 -118.40530 92 ft 1 kts 81°
2026-05-04 15:22 33.93829 -118.40521 94 ft 0 kts 43°
2026-05-04 15:23 33.93833 -118.40521 92 ft 1 kts 350°
2026-05-04 15:23 33.93881 -118.40531 92 ft 10 kts 352°
2026-05-04 15:23 33.93961 -118.40543 92 ft 13 kts 353°
2026-05-04 15:23 33.94028 -118.40553 91 ft 1 kts 353°
2026-05-04 15:24 33.94080 -118.40561 91 ft 4 kts 353°
2026-05-04 15:24 33.94104 -118.40542 91 ft 3 kts 83°
2026-05-04 15:25 33.94107 -118.40518 92 ft 2 kts 83°
2026-05-04 15:25 33.94108 -118.40511 91 ft 0 kts 83°
2026-05-04 15:25 33.94108 -118.40509 91 ft 0 kts 83°